NJE163T LIMJ-LOWW

Flight info

Callsign NJE163T
Flight time 1h 12m
Altitude 34000
Route ITCAP DCT OSKOR DCT NESTI DCT ARALD DCT ABTAN ABTAN2W
Aircraft CL60/M-SBDE1E2E3FGHIJ4J5J7M3RWXYZ/LB1V1D1

Departure

Time 2026-04-22 17:09
Airport Genoa Cristoforo Colombo Airport (LIMJ)

Arrival

Time 2026-04-22 18:21
Airport Vienna International Airport (LOWW)
Time Latitude Longitude Altitude Speed Heading
2026-04-22 16:01 44.41708 8.85155 35 ft 0 kts 104°
2026-04-22 17:03 44.41707 8.85158 35 ft 1 kts 102°
2026-04-22 17:03 44.41711 8.85171 35 ft 1 kts 34°
2026-04-22 17:03 44.41729 8.85151 35 ft 5 kts 289°
2026-04-22 17:04 44.41714 8.85085 35 ft 8 kts 236°
2026-04-22 17:04 44.41674 8.85029 37 ft 8 kts 224°
2026-04-22 17:04 44.41622 8.84952 37 ft 12 kts 229°
2026-04-22 17:04 44.41561 8.84852 37 ft 13 kts 231°
2026-04-22 17:05 44.41505 8.84751 36 ft 11 kts 232°
2026-04-22 17:05 44.41452 8.84655 33 ft 8 kts 222°
2026-04-22 17:05 44.41420 8.84652 33 ft 6 kts 145°
2026-04-22 17:05 44.41402 8.84700 34 ft 5 kts 106°
2026-04-22 17:06 44.41388 8.84774 35 ft 11 kts 104°
2026-04-22 17:06 44.41365 8.84888 35 ft 7 kts 105°
2026-04-22 17:06 44.41341 8.84946 35 ft 8 kts 161°
2026-04-22 17:06 44.41278 8.84933 33 ft 10 kts 197°
2026-04-22 17:07 44.41202 8.84902 31 ft 11 kts 194°
2026-04-22 17:07 44.41138 8.84872 30 ft 8 kts 210°
2026-04-22 17:07 44.41084 8.84826 28 ft 9 kts 228°
2026-04-22 17:07 44.41084 8.84762 28 ft 3 kts 285°
2026-04-22 17:08 44.41085 8.84755 28 ft 8 kts 285°
2026-04-22 17:08 44.41180 8.84275 24 ft 93 kts 287°
2026-04-22 17:08 44.41407 8.83104 25 ft 152 kts 287°
2026-04-22 17:08 44.41677 8.81568 452 ft 168 kts 287°
2026-04-22 17:09 44.41958 8.79960 1014 ft 179 kts 289°
2026-04-22 17:09 44.41885 8.78177 1633 ft 195 kts 249°
2026-04-22 17:09 44.41377 8.77107 1893 ft 206 kts 220°
2026-04-22 17:09 44.39658 8.76359 2406 ft 197 kts 163°
2026-04-22 17:10 44.38442 8.77095 2753 ft 190 kts 150°
2026-04-22 17:10 44.37231 8.77843 3200 ft 191 kts 153°
2026-04-22 17:10 44.35996 8.78590 3732 ft 193 kts 153°
2026-04-22 17:10 44.34776 8.79347 4272 ft 195 kts 152°
2026-04-22 17:11 44.33535 8.80124 4825 ft 197 kts 153°
2026-04-22 17:11 44.32288 8.80890 5363 ft 200 kts 158°
2026-04-22 17:11 44.30911 8.81232 5840 ft 204 kts 179°
2026-04-22 17:11 44.29487 8.81168 6190 ft 208 kts 180°
2026-04-22 17:12 44.28043 8.81091 6485 ft 206 kts 180°
2026-04-22 17:12 44.26613 8.81019 6831 ft 207 kts 180°
2026-04-22 17:12 44.25174 8.80947 7203 ft 209 kts 180°
2026-04-22 17:12 44.23709 8.80874 7568 ft 211 kts 180°
2026-04-22 17:13 44.22243 8.80801 7924 ft 213 kts 180°
2026-04-22 17:13 44.20766 8.80727 8283 ft 215 kts 180°
2026-04-22 17:13 44.19260 8.80653 8658 ft 216 kts 181°
2026-04-22 17:13 44.17762 8.80579 9033 ft 218 kts 181°
2026-04-22 17:14 44.16262 8.80248 9388 ft 221 kts 207°
2026-04-22 17:14 44.15150 8.78847 9737 ft 222 kts 248°
2026-04-22 17:14 44.14894 8.76682 10268 ft 239 kts 285°
2026-04-22 17:14 44.15664 8.74638 11055 ft 250 kts 319°
2026-04-22 17:15 44.16578 8.73655 11638 ft 259 kts 332°
2026-04-22 17:15 44.18952 8.72813 12647 ft 281 kts
2026-04-22 17:15 44.20868 8.73636 13506 ft 301 kts 29°
2026-04-22 17:15 44.22438 8.75698 14278 ft 324 kts 45°
2026-04-22 17:16 44.23913 8.78112 15105 ft 336 kts 44°
2026-04-22 17:16 44.25440 8.80589 15957 ft 345 kts 44°
2026-04-22 17:16 44.27013 8.83142 16827 ft 353 kts 43°
2026-04-22 17:16 44.28630 8.85761 17555 ft 363 kts 43°
2026-04-22 17:17 44.30300 8.88469 18283 ft 372 kts 42°
2026-04-22 17:17 44.31978 8.91192 19112 ft 377 kts 42°
2026-04-22 17:17 44.33711 8.94005 19910 ft 383 kts 42°
2026-04-22 17:17 44.35438 8.96810 20649 ft 390 kts 41°
2026-04-22 17:18 44.37225 8.99712 21368 ft 396 kts 41°
2026-04-22 17:18 44.39027 9.02643 22063 ft 401 kts 41°
2026-04-22 17:18 44.40855 9.05617 22706 ft 408 kts 41°
2026-04-22 17:18 44.42815 9.08400 23321 ft 401 kts 29°
2026-04-22 17:19 44.47533 9.12437 24683 ft 401 kts 21°
2026-04-22 17:19 44.52361 9.16427 26027 ft 407 kts 21°
2026-04-22 17:20 44.57304 9.20519 27189 ft 414 kts 21°
2026-04-22 17:20 44.62294 9.24660 28242 ft 420 kts 21°
2026-04-22 17:21 44.64829 9.26765 28678 ft 425 kts 21°
2026-04-22 17:21 44.69931 9.31012 29634 ft 429 kts 20°
2026-04-22 17:22 44.75100 9.35324 30511 ft 433 kts 20°
2026-04-22 17:22 44.77669 9.37470 30926 ft 435 kts 20°
2026-04-22 17:22 44.82884 9.41835 31787 ft 435 kts 20°
2026-04-22 17:23 44.85496 9.44027 32305 ft 433 kts 21°
2026-04-22 17:23 44.90587 9.48307 33295 ft 428 kts 21°
2026-04-22 17:23 44.93153 9.50466 33736 ft 426 kts 21°
2026-04-22 17:24 44.95694 9.52604 34076 ft 426 kts 20°
2026-04-22 17:24 44.98230 9.54736 34142 ft 428 kts 21°
2026-04-22 17:24 45.03332 9.59040 34139 ft 429 kts 21°
2026-04-22 17:25 45.08460 9.63371 34146 ft 433 kts 21°
2026-04-22 17:25 45.13685 9.67795 34141 ft 436 kts 22°
2026-04-22 17:26 45.18871 9.72199 34151 ft 437 kts 22°
2026-04-22 17:26 45.24085 9.76636 34156 ft 437 kts 22°
2026-04-22 17:27 45.29260 9.81047 34156 ft 437 kts 22°
2026-04-22 17:27 45.34471 9.85500 34152 ft 437 kts 22°
2026-04-22 17:28 45.39650 9.89934 34164 ft 437 kts 23°
2026-04-22 17:28 45.44868 9.94412 34157 ft 437 kts 23°
2026-04-22 17:29 45.50059 9.98876 34160 ft 437 kts 23°
2026-04-22 17:29 45.55238 10.03339 34162 ft 437 kts 23°
2026-04-22 17:30 45.60421 10.07818 34172 ft 438 kts 24°
2026-04-22 17:30 45.65259 10.13202 34165 ft 451 kts 37°
2026-04-22 17:31 45.69238 10.20283 34164 ft 462 kts 47°
2026-04-22 17:31 45.72954 10.27749 34175 ft 461 kts 47°
2026-04-22 17:32 45.76640 10.35162 34170 ft 460 kts 47°
2026-04-22 17:32 45.80284 10.42714 34165 ft 465 kts 52°
2026-04-22 17:33 45.83130 10.51056 34148 ft 470 kts 57°
2026-04-22 17:33 45.85886 10.59530 34144 ft 470 kts 57°
2026-04-22 17:34 45.88620 10.67958 34146 ft 469 kts 58°
2026-04-22 17:34 45.91368 10.76451 34138 ft 469 kts 58°
2026-04-22 17:35 45.94099 10.84916 34133 ft 469 kts 58°
2026-04-22 17:35 45.96824 10.93390 34132 ft 468 kts 58°
2026-04-22 17:36 45.99537 11.01850 34147 ft 467 kts 58°
2026-04-22 17:36 46.02233 11.10287 34155 ft 465 kts 58°
2026-04-22 17:37 46.04931 11.18753 34161 ft 465 kts 59°
2026-04-22 17:37 46.07603 11.27166 34159 ft 464 kts 59°
2026-04-22 17:38 46.10270 11.35591 34145 ft 462 kts 59°
2026-04-22 17:38 46.12919 11.43981 34117 ft 463 kts 59°
2026-04-22 17:39 46.15561 11.52380 34091 ft 462 kts 59°
2026-04-22 17:40 46.19501 11.64960 34117 ft 461 kts 59°
2026-04-22 17:40 46.22143 11.73426 34115 ft 461 kts 60°
2026-04-22 17:41 46.24748 11.81802 34113 ft 461 kts 60°
2026-04-22 17:41 46.27358 11.90225 34150 ft 459 kts 60°
2026-04-22 17:42 46.29947 11.98608 34157 ft 458 kts 60°
2026-04-22 17:42 46.32086 12.05553 34173 ft 456 kts 60°
2026-04-22 17:43 46.35085 12.15320 34130 ft 455 kts 60°
2026-04-22 17:43 46.37633 12.23650 34131 ft 456 kts 61°
2026-04-22 17:44 46.40198 12.32063 34152 ft 455 kts 61°
2026-04-22 17:44 46.42737 12.40418 34138 ft 455 kts 61°
2026-04-22 17:45 46.45265 12.48767 34161 ft 455 kts 61°
2026-04-22 17:45 46.47784 12.57114 34183 ft 454 kts 61°
2026-04-22 17:46 46.50305 12.65493 34177 ft 452 kts 62°
2026-04-22 17:46 46.52804 12.73827 34139 ft 453 kts 62°
2026-04-22 17:47 46.55302 12.82189 34165 ft 452 kts 62°
2026-04-22 17:47 46.57787 12.90533 34202 ft 453 kts 62°
2026-04-22 17:48 46.59868 12.97539 34205 ft 453 kts 62°
2026-04-22 17:48 46.62653 13.07377 34231 ft 453 kts 64°
2026-04-22 17:49 46.64909 13.15862 34235 ft 452 kts 64°
2026-04-22 17:49 46.67170 13.24386 34235 ft 451 kts 64°
2026-04-22 17:50 46.69415 13.32871 34221 ft 451 kts 64°
2026-04-22 17:50 46.71657 13.41374 34205 ft 451 kts 64°
2026-04-22 17:51 46.73892 13.49878 34170 ft 451 kts 64°
2026-04-22 17:51 46.76115 13.58366 34174 ft 450 kts 64°
2026-04-22 17:52 46.78332 13.66863 34187 ft 449 kts 65°
2026-04-22 17:52 46.79733 13.72240 34191 ft 449 kts 65°
2026-04-22 17:53 46.81067 13.77371 34209 ft 449 kts 65°
2026-04-22 17:53 46.83260 13.85846 34200 ft 449 kts 65°
2026-04-22 17:54 46.85445 13.94317 34202 ft 448 kts 65°
2026-04-22 17:54 46.87625 14.02797 34189 ft 447 kts 66°
2026-04-22 17:55 46.89432 14.09852 34219 ft 447 kts 66°
2026-04-22 17:55 46.91954 14.19732 34214 ft 448 kts 66°
2026-04-22 17:56 46.94117 14.28239 34217 ft 447 kts 65°
2026-04-22 17:56 46.96278 14.36770 34212 ft 446 kts 66°
2026-04-22 17:57 46.98410 14.45221 33985 ft 446 kts 66°
2026-04-22 17:57 46.99484 14.49489 33664 ft 442 kts 66°
2026-04-22 17:57 47.00534 14.53675 33335 ft 438 kts 66°
2026-04-22 17:57 47.01568 14.57800 32987 ft 436 kts 66°
2026-04-22 17:58 47.02614 14.61979 32643 ft 435 kts 66°
2026-04-22 17:58 47.03647 14.66115 32360 ft 433 kts 67°
2026-04-22 17:58 47.04675 14.70238 32038 ft 434 kts 67°
2026-04-22 17:58 47.05706 14.74378 31670 ft 433 kts 67°
2026-04-22 17:59 47.06722 14.78466 31305 ft 432 kts 67°
2026-04-22 17:59 47.07751 14.82618 30914 ft 432 kts 67°
2026-04-22 17:59 47.08763 14.86704 30513 ft 431 kts 67°
2026-04-22 17:59 47.09792 14.90870 30133 ft 432 kts 67°
2026-04-22 18:00 47.10463 14.93589 29849 ft 433 kts 67°
2026-04-22 18:00 47.11820 14.99099 29086 ft 432 kts 67°
2026-04-22 18:00 47.12830 15.03212 28569 ft 427 kts 67°
2026-04-22 18:00 47.13839 15.07328 28037 ft 423 kts 67°
2026-04-22 18:01 47.14824 15.11356 27526 ft 419 kts 67°
2026-04-22 18:01 47.15787 15.15299 27013 ft 415 kts 67°
2026-04-22 18:01 47.16869 15.19194 26475 ft 406 kts 58°
2026-04-22 18:01 47.18395 15.22605 25923 ft 396 kts 53°
2026-04-22 18:02 47.19920 15.25853 25462 ft 386 kts 53°
2026-04-22 18:02 47.21413 15.29055 24995 ft 379 kts 53°
2026-04-22 18:02 47.22906 15.32259 24526 ft 377 kts 53°
2026-04-22 18:02 47.24365 15.35396 24055 ft 376 kts 53°
2026-04-22 18:03 47.25843 15.38581 23606 ft 374 kts 53°
2026-04-22 18:03 47.27302 15.41728 23130 ft 372 kts 53°
2026-04-22 18:03 47.28742 15.44842 22684 ft 369 kts 53°
2026-04-22 18:03 47.30161 15.47913 22232 ft 366 kts 53°
2026-04-22 18:04 47.31582 15.50993 21770 ft 364 kts 53°
2026-04-22 18:04 47.33008 15.54089 21321 ft 361 kts 53°
2026-04-22 18:04 47.34413 15.57142 20879 ft 359 kts 53°
2026-04-22 18:04 47.35802 15.60166 20437 ft 356 kts 53°
2026-04-22 18:05 47.37175 15.63157 19995 ft 354 kts 53°
2026-04-22 18:05 47.38549 15.66155 19562 ft 352 kts 54°
2026-04-22 18:05 47.39891 15.69086 19129 ft 349 kts 54°
2026-04-22 18:05 47.41244 15.72047 18700 ft 347 kts 54°
2026-04-22 18:06 47.42583 15.74977 18273 ft 345 kts 54°
2026-04-22 18:06 47.43930 15.77932 17848 ft 343 kts 54°
2026-04-22 18:06 47.45252 15.80833 17414 ft 341 kts 54°
2026-04-22 18:06 47.46562 15.83711 16996 ft 339 kts 54°
2026-04-22 18:07 47.47435 15.85632 16715 ft 338 kts 54°
2026-04-22 18:07 47.49164 15.89439 16158 ft 335 kts 54°
2026-04-22 18:07 47.50455 15.92284 15744 ft 333 kts 54°
2026-04-22 18:07 47.51731 15.95100 15331 ft 331 kts 54°
2026-04-22 18:08 47.53006 15.97917 14914 ft 329 kts 54°
2026-04-22 18:08 47.54274 16.00723 14519 ft 327 kts 54°
2026-04-22 18:08 47.55542 16.03530 14114 ft 326 kts 53°
2026-04-22 18:08 47.56779 16.06270 13722 ft 325 kts 53°
2026-04-22 18:09 47.58037 16.09062 13315 ft 323 kts 53°
2026-04-22 18:09 47.59271 16.11802 12921 ft 317 kts 53°
2026-04-22 18:09 47.60471 16.14476 12458 ft 310 kts 53°
2026-04-22 18:09 47.61651 16.17101 11969 ft 304 kts 53°
2026-04-22 18:10 47.62796 16.19656 11626 ft 295 kts 53°
2026-04-22 18:10 47.63920 16.22161 11251 ft 290 kts 53°
2026-04-22 18:10 47.65042 16.24665 10904 ft 292 kts 53°
2026-04-22 18:10 47.66149 16.27133 10537 ft 291 kts 53°
2026-04-22 18:11 47.67265 16.29629 10209 ft 291 kts 53°
2026-04-22 18:11 47.68421 16.32106 9780 ft 290 kts 47°
2026-04-22 18:11 47.69840 16.34198 9069 ft 290 kts 39°
2026-04-22 18:11 47.71308 16.36190 8358 ft 283 kts 39°
2026-04-22 18:12 47.72735 16.38142 7952 ft 277 kts 39°
2026-04-22 18:12 47.74123 16.40042 7594 ft 275 kts 39°
2026-04-22 18:12 47.75072 16.41342 7352 ft 277 kts 39°
2026-04-22 18:12 47.76957 16.43932 6895 ft 277 kts 39°
2026-04-22 18:13 47.78366 16.45872 6541 ft 276 kts 39°
2026-04-22 18:13 47.79776 16.47816 6206 ft 276 kts 39°
2026-04-22 18:13 47.81178 16.49751 5849 ft 275 kts 39°
2026-04-22 18:13 47.82559 16.51663 5519 ft 271 kts 39°
2026-04-22 18:14 47.83913 16.53540 5185 ft 263 kts 39°
2026-04-22 18:14 47.85227 16.55364 4860 ft 255 kts 39°
2026-04-22 18:14 47.86504 16.57139 4565 ft 247 kts 39°
2026-04-22 18:14 47.87748 16.58869 4243 ft 241 kts 39°
2026-04-22 18:15 47.88941 16.60530 3920 ft 229 kts 39°
2026-04-22 18:15 47.90067 16.62100 3680 ft 217 kts 39°
2026-04-22 18:15 47.91143 16.63602 3457 ft 206 kts 38°
2026-04-22 18:15 47.92177 16.64944 3176 ft 191 kts 28°
2026-04-22 18:16 47.93397 16.65464 3020 ft 182 kts 359°
2026-04-22 18:16 47.94644 16.65104 3023 ft 184 kts 346°
2026-04-22 18:16 47.95856 16.64597 3028 ft 178 kts 346°
2026-04-22 18:16 47.97051 16.64110 2958 ft 177 kts 346°
2026-04-22 18:17 47.98215 16.63625 2731 ft 170 kts 346°
2026-04-22 18:17 47.99321 16.63160 2513 ft 156 kts 346°
2026-04-22 18:17 48.00294 16.62749 2317 ft 141 kts 346°
2026-04-22 18:17 48.01252 16.62348 2130 ft 143 kts 345°
2026-04-22 18:18 48.02190 16.61954 1958 ft 131 kts 345°
2026-04-22 18:18 48.03005 16.61610 1811 ft 121 kts 345°
2026-04-22 18:18 48.03804 16.61273 1615 ft 117 kts 345°
2026-04-22 18:18 48.04478 16.60989 1492 ft 116 kts 345°
2026-04-22 18:19 48.05267 16.60660 1366 ft 119 kts 346°
2026-04-22 18:19 48.06074 16.60330 1191 ft 122 kts 344°
2026-04-22 18:19 48.06876 16.59955 1026 ft 121 kts 345°
2026-04-22 18:19 48.07697 16.59635 833 ft 122 kts 345°
2026-04-22 18:20 48.08499 16.59291 677 ft 120 kts 345°
2026-04-22 18:20 48.09301 16.58952 590 ft 113 kts 344°
2026-04-22 18:20 48.09930 16.58687 598 ft 73 kts 345°
2026-04-22 18:20 48.10390 16.58491 599 ft 63 kts 345°
2026-04-22 18:21 48.10781 16.58327 596 ft 55 kts 344°
2026-04-22 18:21 48.11072 16.58204 594 ft 28 kts 344°
2026-04-22 18:21 48.11121 16.58180 593 ft 3 kts 308°
2026-04-22 18:21 48.11103 16.58137 594 ft 5 kts 221°
2026-04-22 18:22 48.11072 16.58079 595 ft 5 kts 255°
2026-04-22 18:22 48.11064 16.58023 595 ft 5 kts 272°
2026-04-22 18:22 48.11074 16.57974 595 ft 4 kts 292°
2026-04-22 18:22 48.11076 16.57967 595 ft 0 kts 292°
2026-04-22 18:23 48.11076 16.57966 595 ft 0 kts 292°
2026-04-22 18:23 48.11076 16.57965 595 ft 1 kts 292°
2026-04-22 18:24 48.11116 16.57840 596 ft 9 kts 298°
2026-04-22 18:24 48.11146 16.57753 595 ft 9 kts 296°
2026-04-22 18:24 48.11213 16.57539 597 ft 14 kts 296°
2026-04-22 18:25 48.11261 16.57398 600 ft 14 kts 297°
2026-04-22 18:25 48.11301 16.57271 603 ft 12 kts 295°
2026-04-22 18:25 48.11333 16.57171 605 ft 9 kts 295°
2026-04-22 18:26 48.11389 16.56999 605 ft 10 kts 298°
2026-04-22 18:26 48.11428 16.56885 604 ft 12 kts 295°
2026-04-22 18:26 48.11464 16.56771 603 ft 12 kts 297°
2026-04-22 18:26 48.11504 16.56651 601 ft 13 kts 295°
2026-04-22 18:27 48.11547 16.56518 599 ft 16 kts 297°
2026-04-22 18:27 48.11609 16.56330 592 ft 22 kts 296°
2026-04-22 18:27 48.11676 16.56123 588 ft 23 kts 295°
2026-04-22 18:27 48.11747 16.55908 583 ft 23 kts 295°
2026-04-22 18:28 48.11814 16.55701 582 ft 16 kts 296°
2026-04-22 18:28 48.11861 16.55554 582 ft 15 kts 295°
2026-04-22 18:28 48.11888 16.55449 582 ft 8 kts 287°
2026-04-22 18:28 48.11914 16.55355 582 ft 11 kts 296°
2026-04-22 18:29 48.11946 16.55245 582 ft 10 kts 279°
2026-04-22 18:29 48.11933 16.55192 582 ft 3 kts 207°
2026-04-22 18:29 48.11913 16.55152 582 ft 7 kts 253°
2026-04-22 18:29 48.11935 16.55041 580 ft 13 kts 297°
2026-04-22 18:30 48.11977 16.54913 579 ft 13 kts 294°
2026-04-22 18:30 48.12086 16.54581 575 ft 22 kts 295°
2026-04-22 18:30 48.12155 16.54370 570 ft 23 kts 296°
2026-04-22 18:31 48.12226 16.54153 568 ft 22 kts 297°
2026-04-22 18:31 48.12291 16.53953 569 ft 20 kts 295°
2026-04-22 18:31 48.12352 16.53767 569 ft 19 kts 295°
2026-04-22 18:31 48.12391 16.53646 569 ft 7 kts 306°
2026-04-22 18:32 48.12436 16.53630 569 ft 8 kts 17°
2026-04-22 18:32 48.12504 16.53626 569 ft 8 kts 13°
2026-04-22 18:32 48.12550 16.53653 568 ft 4 kts 356°
2026-04-22 18:32 48.12572 16.53618 567 ft 5 kts 294°
2026-04-22 18:33 48.12577 16.53600 567 ft 0 kts 296°